| time (UTC) | temp F | wind direction | speed MPH | gust MPH | rain 1hr in | rain 24hr in | rain mn in | humidity % | barometer mb |
| 20260504233308 | 78 | 190 | 7.0 | 15.0 | 0.00 | 0.00 | 0.00 | 66 | 1007.7 |
| 20260504233041 | 78 | 190 | 7.0 | 15.0 | 0.00 | 0.00 | 0.00 | 66 | 1007.7 |
| 20260504232310 | 78 | 190 | 8.0 | 14.0 | 0.00 | 0.00 | 0.00 | 66 | 1007.7 |
| 20260504231809 | 78 | 190 | 7.0 | 15.0 | 0.00 | 0.00 | 0.00 | 65 | 1007.7 |
| 20260504231557 | 79 | 190 | 6.0 | 15.0 | 0.00 | 0.00 | 0.00 | 65 | 1007.8 |
| 20260504231033 | 78 | 190 | 6.0 | 12.0 | 0.00 | 0.00 | 0.00 | 66 | 1007.8 |
| 20260504230307 | 78 | 190 | 7.0 | 14.0 | 0.00 | 0.00 | 0.00 | 66 | 1007.7 |
| 20260504225803 | 78 | 190 | 8.0 | 14.0 | 0.00 | 0.00 | 0.00 | 66 | 1007.9 |
| 20260504225304 | 79 | 190 | 8.0 | 14.0 | 0.00 | 0.00 | 0.00 | 65 | 1007.9 |
| 20260504224255 | 79 | 190 | 8.0 | 16.0 | 0.00 | 0.00 | 0.00 | 65 | 1008.0 |
| 20260504223752 | 79 | 190 | 9.0 | 16.0 | 0.00 | 0.00 | 0.00 | 65 | 1008.0 |
| 20260504223258 | 80 | 190 | 9.0 | 15.0 | 0.00 | 0.00 | 0.00 | 65 | 1008.0 |
| 20260504222752 | 80 | 190 | 8.0 | 14.0 | 0.00 | 0.00 | 0.00 | 64 | 1008.0 |
| 20260504222254 | 80 | 190 | 8.0 | 15.0 | 0.00 | 0.00 | 0.00 | 64 | 1008.0 |
| 20260504221801 | 80 | 190 | 7.0 | 15.0 | 0.00 | 0.00 | 0.00 | 63 | 1008.1 |
| 20260504221246 | 81 | 190 | 7.0 | 14.0 | 0.00 | 0.00 | 0.00 | 63 | 1008.0 |
| 20260504220748 | 81 | 190 | 8.0 | 15.0 | 0.00 | 0.00 | 0.00 | 62 | 1008.0 |
| 20260504220248 | 81 | 190 | 9.0 | 15.0 | 0.00 | 0.00 | 0.00 | 62 | 1008.1 |
| 20260504215747 | 81 | 190 | 9.0 | 15.0 | 0.00 | 0.00 | 0.00 | 62 | 1008.0 |
| 20260504215255 | 81 | 190 | 8.0 | 16.0 | 0.00 | 0.00 | 0.00 | 61 | 1008.1 |
| 20260504214747 | 81 | 190 | 7.0 | 18.0 | 0.00 | 0.00 | 0.00 | 61 | 1008.3 |
| 20260504214242 | 81 | 190 | 6.0 | 13.0 | 0.00 | 0.00 | 0.00 | 61 | 1008.4 |
| 20260504213751 | 81 | 190 | 6.0 | 11.0 | 0.00 | 0.00 | 0.00 | 62 | 1008.6 |
| 20260504213242 | 80 | 190 | 5.0 | 11.0 | 0.00 | 0.00 | 0.00 | 62 | 1008.7 |
| 20260504212744 | 80 | 190 | 5.0 | 11.0 | 0.00 | 0.00 | 0.00 | 62 | 1008.8 |
| 20260504212248 | 80 | 190 | 6.0 | 11.0 | 0.00 | 0.00 | 0.00 | 62 | 1008.9 |
| 20260504211742 | 81 | 190 | 5.0 | 14.0 | 0.00 | 0.00 | 0.00 | 62 | 1008.9 |
| 20260504211237 | 81 | 190 | 5.0 | 14.0 | 0.00 | 0.00 | 0.00 | 61 | 1009.1 |
| 20260504210740 | 81 | 190 | 5.0 | 9.0 | 0.00 | 0.00 | 0.00 | 61 | 1009.2 |
| 20260504210512 | 81 | 190 | 4.0 | 8.0 | 0.00 | 0.00 | 0.00 | 61 | 1009.2 |
| 20260504210009 | 81 | 190 | 5.0 | 15.0 | 0.00 | 0.00 | 0.00 | 60 | 1009.2 |
| 20260504205233 | 82 | 190 | 6.0 | 15.0 | 0.00 | 0.00 | 0.00 | 60 | 1009.3 |
| 20260504204739 | 82 | 190 | 6.0 | 12.0 | 0.00 | 0.00 | 0.00 | 61 | 1009.4 |
| 20260504204228 | 82 | 190 | 5.0 | 12.0 | 0.00 | 0.00 | 0.00 | 60 | 1009.5 |
| 20260504204000 | 82 | 190 | 6.0 | 12.0 | 0.00 | 0.00 | 0.00 | 59 | 1009.3 |
| 20260504203231 | 82 | 190 | 7.0 | 13.0 | 0.00 | 0.00 | 0.00 | 59 | 1009.7 |
| 20260504202729 | 81 | 190 | 7.0 | 13.0 | 0.00 | 0.00 | 0.00 | 60 | 1009.5 |
| 20260504202226 | 81 | 190 | 6.0 | 11.0 | 0.00 | 0.00 | 0.00 | 60 | 1009.7 |
| 20260504201722 | 81 | 190 | 7.0 | 15.0 | 0.00 | 0.00 | 0.00 | 59 | 1009.8 |
| 20260504201222 | 82 | 190 | 7.0 | 15.0 | 0.00 | 0.00 | 0.00 | 60 | 1009.8 |
| 20260504200728 | 82 | 190 | 6.0 | 10.0 | 0.00 | 0.00 | 0.00 | 61 | 1009.9 |
| 20260504200223 | 81 | 190 | 6.0 | 12.0 | 0.00 | 0.00 | 0.00 | 61 | 1009.9 |
| 20260504195727 | 81 | 190 | 7.0 | 14.0 | 0.00 | 0.00 | 0.00 | 61 | 1010.2 |
| 20260504195224 | 81 | 190 | 7.0 | 14.0 | 0.00 | 0.00 | 0.00 | 60 | 1010.3 |
| 20260504194722 | 81 | 190 | 6.0 | 10.0 | 0.00 | 0.00 | 0.00 | 60 | 1010.3 |
| 20260504194223 | 80 | 190 | 5.0 | 10.0 | 0.00 | 0.00 | 0.00 | 60 | 1010.5 |
| 20260504193722 | 80 | 190 | 5.0 | 10.0 | 0.00 | 0.00 | 0.00 | 61 | 1010.6 |
| 20260504193220 | 80 | 190 | 6.0 | 10.0 | 0.00 | 0.00 | 0.00 | 61 | 1010.6 |
| 20260504192718 | 81 | 190 | 6.0 | 13.0 | 0.00 | 0.00 | 0.00 | 61 | 1010.5 |
| 20260504192446 | 80 | 190 | 6.0 | 13.0 | 0.00 | 0.00 | 0.00 | 61 | 1010.6 |
| 20260504191711 | 80 | 190 | 5.0 | 11.0 | 0.00 | 0.00 | 0.00 | 62 | 1010.7 |
| 20260504191209 | 80 | 190 | 6.0 | 12.0 | 0.00 | 0.00 | 0.00 | 62 | 1010.8 |
| 20260504190704 | 80 | 190 | 7.0 | 14.0 | 0.00 | 0.00 | 0.00 | 61 | 1010.9 |
| 20260504190204 | 80 | 190 | 6.0 | 14.0 | 0.00 | 0.00 | 0.00 | 62 | 1011.0 |
| 20260504185704 | 80 | 190 | 5.0 | 11.0 | 0.00 | 0.00 | 0.00 | 62 | 1011.1 |
| 20260504185204 | 80 | 190 | 5.0 | 10.0 | 0.00 | 0.00 | 0.00 | 62 | 1011.1 |
| 20260504184935 | 79 | 190 | 5.0 | 12.0 | 0.00 | 0.00 | 0.00 | 62 | 1011.2 |
| 20260504184209 | 79 | 190 | 6.0 | 12.0 | 0.00 | 0.00 | 0.00 | 62 | 1011.3 |
| 20260504183700 | 78 | 190 | 5.0 | 9.0 | 0.00 | 0.00 | 0.00 | 63 | 1011.2 |
| 20260504183201 | 78 | 190 | 6.0 | 10.0 | 0.00 | 0.00 | 0.00 | 63 | 1011.3 |
| 20260504182707 | 78 | 190 | 6.0 | 13.0 | 0.00 | 0.00 | 0.00 | 63 | 1011.3 |
| 20260504182201 | 78 | 190 | 6.0 | 13.0 | 0.00 | 0.00 | 0.00 | 63 | 1011.4 |
| 20260504181700 | 78 | 190 | 6.0 | 12.0 | 0.00 | 0.00 | 0.00 | 64 | 1011.6 |
| 20260504181202 | 78 | 190 | 6.0 | 12.0 | 0.00 | 0.00 | 0.00 | 62 | 1011.7 |
| 20260504180656 | 78 | 190 | 5.0 | 12.0 | 0.00 | 0.00 | 0.00 | 63 | 1011.9 |
| 20260504180159 | 78 | 190 | 5.0 | 13.0 | 0.00 | 0.00 | 0.00 | 63 | 1011.9 |
| 20260504175656 | 78 | 190 | 6.0 | 13.0 | 0.00 | 0.00 | 0.00 | 62 | 1011.9 |
| 20260504175156 | 78 | 190 | 5.0 | 9.0 | 0.00 | 0.00 | 0.00 | 63 | 1011.9 |
| 20260504174926 | 78 | 190 | 5.0 | 9.0 | 0.00 | 0.00 | 0.00 | 62 | 1012.2 |
| 20260504174428 | 78 | 190 | 6.0 | 13.0 | 0.00 | 0.00 | 0.00 | 62 | 1012.1 |
| 20260504173650 | 78 | 190 | 7.0 | 13.0 | 0.00 | 0.00 | 0.00 | 61 | 1012.1 |
| 20260504173150 | 78 | 190 | 6.0 | 13.0 | 0.00 | 0.00 | 0.00 | 63 | 1012.1 |
| 20260504172652 | 78 | 190 | 5.0 | 12.0 | 0.00 | 0.00 | 0.00 | 64 | 1012.2 |
| 20260504172150 | 78 | 190 | 6.0 | 13.0 | 0.00 | 0.00 | 0.00 | 62 | 1012.3 |
| 20260504171922 | 78 | 190 | 7.0 | 14.0 | 0.00 | 0.00 | 0.00 | 63 | 1012.3 |
| 20260504171421 | 78 | 190 | 7.0 | 14.0 | 0.00 | 0.00 | 0.00 | 61 | 1012.4 |
| 20260504170650 | 78 | 190 | 7.0 | 14.0 | 0.00 | 0.00 | 0.00 | 62 | 1012.6 |
| 20260504170148 | 78 | 190 | 7.0 | 14.0 | 0.00 | 0.00 | 0.00 | 60 | 1012.5 |
| 20260504160131 | 76 | 190 | 8.0 | 14.0 | 0.00 | 0.00 | 0.00 | 65 | 1013.1 |
| 20260504151124 | 74 | 190 | 8.0 | 13.0 | 0.00 | 0.00 | 0.00 | 66 | 1013.4 |
| 20260504150624 | 74 | 190 | 6.0 | 13.0 | 0.00 | 0.00 | 0.00 | 65 | 1013.3 |
| 20260504150118 | 73 | 190 | 5.0 | 12.0 | 0.00 | 0.00 | 0.00 | 66 | 1013.3 |
| 20260504141112 | 69 | 190 | 5.0 | 11.0 | 0.00 | 0.00 | 0.00 | 66 | 1013.4 |
| 20260504140844 | 69 | 190 | 4.0 | 8.0 | 0.00 | 0.00 | 0.00 | 65 | 1013.4 |
| 20260504140107 | 69 | 190 | 4.0 | 10.0 | 0.00 | 0.00 | 0.00 | 64 | 1013.4 |
| 20260504130556 | 63 | 190 | 2.0 | 5.0 | 0.00 | 0.00 | 0.00 | 50 | 1013.8 |
| 20260504110650 | 57 | 190 | 0.0 | 0.0 | 0.00 | 0.00 | 0.00 | 25 | 1013.2 |
| 20260504110145 | 57 | 190 | 0.0 | 0.0 | 0.00 | 0.00 | 0.00 | 28 | 1013.1 |
| 20260504100357 | 58 | 190 | 0.0 | 0.0 | 0.00 | 0.00 | 0.00 | 45 | 1013.2 |
| 20260504081607 | 60 | 190 | 0.0 | 0.0 | 0.00 | 0.00 | 0.00 | 53 | 1013.8 |
| 20260504081337 | 60 | 190 | 0.0 | 0.0 | 0.00 | 0.00 | 0.00 | 52 | 1013.8 |
| 20260504080839 | 60 | 190 | 0.0 | 1.0 | 0.00 | 0.00 | 0.00 | 52 | 1013.8 |
| 20260504080108 | 60 | 190 | 1.0 | 4.0 | 0.00 | 0.00 | 0.00 | 53 | 1013.9 |
| 20260504070326 | 61 | 190 | 0.0 | 0.0 | 0.00 | 0.00 | 0.00 | 59 | 1014.9 |
| 20260504050534 | 62 | 190 | 1.0 | 4.0 | 0.00 | 0.00 | 0.00 | 66 | 1015.9 |
| 20260504050258 | 62 | 190 | 1.0 | 5.0 | 0.00 | 0.00 | 0.00 | 66 | 1015.9 |
| 20260504045528 | 62 | 190 | 1.0 | 5.0 | 0.00 | 0.00 | 0.00 | 66 | 1016.0 |
| 20260504045031 | 62 | 190 | 0.0 | 0.0 | 0.00 | 0.00 | 0.00 | 67 | 1016.1 |
| 20260504044531 | 62 | 190 | 0.0 | 2.0 | 0.00 | 0.00 | 0.00 | 67 | 1016.0 |
| 20260504044023 | 63 | 190 | 0.0 | 3.0 | 0.00 | 0.00 | 0.00 | 68 | 1016.1 |
| 20260504043522 | 63 | 190 | 1.0 | 3.0 | 0.00 | 0.00 | 0.00 | 68 | 1016.1 |
| 20260504043027 | 63 | 190 | 1.0 | 3.0 | 0.00 | 0.00 | 0.00 | 68 | 1016.2 |
| 20260504042524 | 63 | 190 | 1.0 | 3.0 | 0.00 | 0.00 | 0.00 | 68 | 1016.2 |
| 20260504042024 | 63 | 190 | 1.0 | 3.0 | 0.00 | 0.00 | 0.00 | 68 | 1016.2 |
| 20260504041519 | 64 | 190 | 1.0 | 5.0 | 0.00 | 0.00 | 0.00 | 68 | 1016.1 |
| 20260504041020 | 64 | 190 | 2.0 | 5.0 | 0.00 | 0.00 | 0.00 | 68 | 1016.1 |
| 20260504040528 | 64 | 190 | 2.0 | 5.0 | 0.00 | 0.00 | 0.00 | 68 | 1016.2 |
| 20260504040024 | 64 | 190 | 2.0 | 4.0 | 0.00 | 0.00 | 0.00 | 68 | 1016.2 |
| 20260504035519 | 64 | 190 | 1.0 | 4.0 | 0.00 | 0.00 | 0.00 | 68 | 1016.3 |
| 20260504035023 | 64 | 190 | 1.0 | 4.0 | 0.00 | 0.00 | 0.00 | 69 | 1016.3 |
| 20260504034516 | 64 | 190 | 2.0 | 4.0 | 0.00 | 0.00 | 0.00 | 69 | 1016.3 |
| 20260504034015 | 64 | 190 | 2.0 | 5.0 | 0.00 | 0.00 | 0.00 | 69 | 1016.4 |
| 20260504033523 | 64 | 190 | 2.0 | 5.0 | 0.00 | 0.00 | 0.00 | 69 | 1016.4 |
| 20260504033015 | 65 | 190 | 2.0 | 5.0 | 0.00 | 0.00 | 0.00 | 69 | 1016.3 |
| 20260504032515 | 65 | 190 | 3.0 | 6.0 | 0.00 | 0.00 | 0.00 | 69 | 1016.2 |
| 20260504032258 | 65 | 190 | 2.0 | 7.0 | 0.00 | 0.00 | 0.00 | 69 | 1016.1 |
| 20260504031743 | 64 | 190 | 1.0 | 7.0 | 0.00 | 0.00 | 0.00 | 69 | 1016.0 |
| 20260504031011 | 65 | 190 | 0.0 | 3.0 | 0.00 | 0.00 | 0.00 | 69 | 1016.0 |
| 20260504030516 | 65 | 190 | 1.0 | 3.0 | 0.00 | 0.00 | 0.00 | 69 | 1016.1 |
| 20260504030017 | 65 | 190 | 2.0 | 4.0 | 0.00 | 0.00 | 0.00 | 69 | 1016.0 |
| 20260504025511 | 65 | 190 | 2.0 | 4.0 | 0.00 | 0.00 | 0.00 | 68 | 1016.0 |
| 20260504025243 | 65 | 190 | 1.0 | 4.0 | 0.00 | 0.00 | 0.00 | 68 | 1016.0 |
| 20260504024507 | 65 | 190 | 0.0 | 0.0 | 0.00 | 0.00 | 0.00 | 67 | 1015.8 |
| 20260504024004 | 65 | 190 | 0.0 | 0.0 | 0.00 | 0.00 | 0.00 | 67 | 1015.8 |
| 20260504023502 | 65 | 190 | 0.0 | 0.0 | 0.00 | 0.00 | 0.00 | 66 | 1015.7 |
| 20260504023006 | 65 | 190 | 0.0 | 3.0 | 0.00 | 0.00 | 0.00 | 66 | 1015.6 |
| 20260504022738 | 66 | 190 | 0.0 | 3.0 | 0.00 | 0.00 | 0.00 | 65 | 1015.5 |
| 20260504021958 | 66 | 190 | 0.0 | 2.0 | 0.00 | 0.00 | 0.00 | 63 | 1015.4 |
| 20260504021502 | 66 | 190 | 0.0 | 0.0 | 0.00 | 0.00 | 0.00 | 63 | 1015.3 |
| 20260504020457 | 67 | 190 | 0.0 | 0.0 | 0.00 | 0.00 | 0.00 | 61 | 1015.4 |
| 20260504015955 | 67 | 190 | 0.0 | 0.0 | 0.00 | 0.00 | 0.00 | 61 | 1015.3 |
| 20260504015454 | 67 | 190 | 0.0 | 0.0 | 0.00 | 0.00 | 0.00 | 61 | 1015.4 |
| 20260504014954 | 67 | 190 | 0.0 | 0.0 | 0.00 | 0.00 | 0.00 | 60 | 1015.3 |
| 20260504014457 | 68 | 190 | 0.0 | 0.0 | 0.00 | 0.00 | 0.00 | 59 | 1015.2 |
| 20260504013948 | 68 | 190 | 0.0 | 0.0 | 0.00 | 0.00 | 0.00 | 59 | 1015.3 |
| 20260504013719 | 69 | 190 | 0.0 | 0.0 | 0.00 | 0.00 | 0.00 | 58 | 1015.2 |
| 20260504012946 | 69 | 190 | 0.0 | 0.0 | 0.00 | 0.00 | 0.00 | 58 | 1015.2 |
| 20260504012445 | 69 | 190 | 0.0 | 0.0 | 0.00 | 0.00 | 0.00 | 57 | 1015.2 |
| 20260504012217 | 69 | 190 | 0.0 | 0.0 | 0.00 | 0.00 | 0.00 | 57 | 1015.1 |
| 20260504011449 | 70 | 190 | 0.0 | 0.0 | 0.00 | 0.00 | 0.00 | 56 | 1015.1 |
| 20260504010942 | 70 | 190 | 0.0 | 0.0 | 0.00 | 0.00 | 0.00 | 55 | 1015.1 |
| 20260504010445 | 71 | 190 | 0.0 | 0.0 | 0.00 | 0.00 | 0.00 | 55 | 1015.1 |
| 20260504005946 | 71 | 190 | 0.0 | 0.0 | 0.00 | 0.00 | 0.00 | 54 | 1015.0 |
| 20260504005447 | 71 | 190 | 0.0 | 0.0 | 0.00 | 0.00 | 0.00 | 53 | 1015.1 |
| 20260504004942 | 72 | 190 | 0.0 | 0.0 | 0.00 | 0.00 | 0.00 | 53 | 1015.2 |
| 20260504004440 | 72 | 190 | 0.0 | 0.0 | 0.00 | 0.00 | 0.00 | 52 | 1015.3 |
| 20260504003935 | 72 | 190 | 0.0 | 0.0 | 0.00 | 0.00 | 0.00 | 52 | 1015.1 |
| 20260504003443 | 73 | 190 | 0.0 | 0.0 | 0.00 | 0.00 | 0.00 | 51 | 1015.2 |
| 20260504002939 | 73 | 190 | 0.0 | 0.0 | 0.00 | 0.00 | 0.00 | 50 | 1015.3 |
| 20260504002436 | 73 | 190 | 0.0 | 0.0 | 0.00 | 0.00 | 0.00 | 50 | 1015.3 |
| 20260504002210 | 74 | 190 | 0.0 | 0.0 | 0.00 | 0.00 | 0.00 | 49 | 1015.4 |
| 20260504001433 | 74 | 190 | 0.0 | 2.0 | 0.00 | 0.00 | 0.00 | 50 | 1015.5 |
| 20260504000933 | 74 | 190 | 0.0 | 3.0 | 0.00 | 0.00 | 0.00 | 48 | 1015.5 |
| 20260504000436 | 74 | 190 | 1.0 | 6.0 | 0.00 | 0.00 | 0.00 | 47 | 1015.6 |
| 20260503235924 | 74 | 190 | 2.0 | 6.0 | 0.00 | 0.00 | 0.00 | 46 | 1015.6 |
| 20260503235425 | 74 | 190 | 3.0 | 6.0 | 0.00 | 0.00 | 0.00 | 45 | 1015.5 |
| 20260503234942 | 75 | 190 | 3.0 | 7.0 | 0.00 | 0.00 | 0.00 | 44 | 1015.5 |
| 20260503234425 | 75 | 190 | 3.0 | 7.0 | 0.00 | 0.00 | 0.00 | 43 | 1015.5 |
| 20260503233919 | 76 | 190 | 4.0 | 8.0 | 0.00 | 0.00 | 0.00 | 43 | 1015.7 |
| 20260503233418 | 76 | 190 | 4.0 | 8.0 | 0.00 | 0.00 | 0.00 | 43 | 1015.6 |